[[{"header":{"parameterUnit":"m.s-1","parameterCategory":1,"la1":30.2991,"la2":30.254,"lo1":-89.0895,"lo2":-89.0444,"dy":0.0017,"dx":0.0017,"nx":28,"ny":28,"refTime":"2024-04-15T09:00:00:Z","depth":0,"parameterNumber":2,"parameterNumberName":"U-component_of_WINDS"},"data":[0,0,0,0,0,0,0,0,0,0,0,0,0,0,0,0,0,0,0,0,0,0,0,0,0,0,0,0,0,0,0,0,0,0,0,0,0,0,0,0,0,0,0,0,0,0,0,0,0,0,0,0,0,0,0,0,0,0,-1.4203,-1.4202,0,-1.4141,-1.414,-1.414,-1.4114,-1.4115,-1.4115,-1.4115,-1.4048,-1.4046,-1.4045,0,0,0,0,0,0,0,0,0,0,0,0,0,-1.4296,-1.4294,-1.4203,-1.4202,-1.4201,-1.4141,-1.414,-1.4139,-1.4114,-1.4115,-1.4115,-1.4115,-1.4049,-1.4047,-1.4044,0,0,0,0,0,0,0,0,0,0,0,0,0,-1.4247,-1.4294,-1.4203,-1.4182,-1.4179,-1.4141,-1.414,-1.4139,-1.4114,-1.4115,-1.4115,-1.4115,-1.405,-1.4047,-1.4044,-1.4022,0,0,-1.4035,-1.4034,0,0,0,0,0,0,0,0,-1.425,-1.4244,-1.4186,-1.4183,-1.418,-1.4136,-1.4149,-1.41,-1.4114,-1.4139,-1.4115,-1.4115,-1.4077,-1.4072,-1.406,-1.4019,-1.4016,-1.4035,-1.4033,-1.4032,-1.4031,0,0,0,0,0,0,0,-1.4253,-1.4246,-1.4178,-1.4185,-1.4182,-1.4174,-1.4167,-1.4139,-1.4107,-1.4137,-1.4135,-1.4128,-1.4076,-1.4063,-1.4058,-1.4015,-1.4035,-1.4033,-1.4031,-1.403,-1.3951,-1.395,0,0,0,0,0,0,-1.4261,-1.4249,-1.418,-1.4177,-1.4216,-1.4172,-1.4165,-1.415,-1.4108,-1.4101,-1.4128,-1.4127,-1.4067,-1.4061,-1.4055,-1.4026,-1.4032,-1.4029,-1.4028,-1.3951,-1.3951,-1.395,0,0,0,0,0,0,-1.4263,-1.4255,-1.4183,-1.4212,-1.4203,-1.417,-1.4154,-1.4148,-1.4135,-1.4101,-1.4095,-1.4121,-1.4067,-1.406,-1.403,-1.4023,-1.4028,-1.4025,-1.3951,-1.3951,-1.395,-1.3966,0,0,0,0,0,0,-1.4265,-1.4256,-1.4248,-1.4212,-1.4201,-1.416,-1.4153,-1.4147,-1.4131,-1.4129,-1.4092,-1.4087,-1.4067,-1.4035,-1.4027,-1.4019,-1.4023,-1.3952,-1.3951,-1.395,-1.3966,-1.3966,-1.3966,0,0,0,0,0,-1.4269,-1.4254,-1.4248,-1.4239,-1.4191,-1.4159,-1.4153,-1.4131,-1.413,-1.4121,-1.4099,-1.4088,-1.4025,-1.4032,-1.4023,-1.4014,-1.3952,-1.3951,-1.3951,-1.3966,-1.3966,-1.3966,0,0,0,0,0,0,-1.4289,-1.4249,-1.4241,-1.4215,-1.4191,-1.4155,-1.4144,-1.4132,-1.4107,-1.4107,-1.408,-1.4072,-1.4044,-1.4026,-1.4035,-1.399,-1.3988,-1.3985,-1.4002,-1.4002,-1.4002,-1.4007,-1.4021,0,0,0,0,0,-1.4291,-1.427,-1.4236,-1.4216,-1.4204,-1.4176,-1.4161,-1.4147,-1.412,-1.411,-1.4085,-1.4059,-1.4033,-1.4017,-1.3991,-1.3964,-1.3954,-1.3953,-1.3953,-1.3953,-1.3951,-1.3934,-1.3932,-1.3947,-1.3947,-1.3947,0,0,-1.4293,-1.4269,-1.4257,-1.4219,-1.4199,-1.4176,-1.4167,-1.4144,-1.4127,-1.4106,-1.4077,-1.4058,-1.4027,-1.3998,-1.3984,-1.3982,-1.3945,-1.3952,-1.3953,-1.395,-1.3933,-1.3931,-1.393,-1.3947,-1.3947,-1.3947,0,0,-1.4286,-1.4267,-1.4247,-1.4227,-1.4196,-1.4178,-1.4173,-1.4139,-1.4126,-1.4096,-1.408,-1.4058,-1.4015,-1.3993,-1.3976,-1.396,-1.3948,-1.3952,-1.3952,-1.3936,-1.3935,-1.3933,-1.3927,-1.3925,-1.395,-1.395,-1.395,0,-1.4293,-1.426,-1.4238,-1.4216,-1.4199,-1.418,-1.4159,-1.414,-1.4102,-1.4091,-1.4089,-1.4034,-1.4011,-1.3977,-1.3973,-1.396,-1.3953,-1.3956,-1.3937,-1.3935,-1.3934,-1.3927,-1.3925,-1.3951,-1.3951,-1.3951,-1.3951,0,-1.4269,-1.4246,-1.4234,-1.4199,-1.4181,-1.4159,-1.4133,-1.4117,-1.4104,-1.4085,-1.4054,-1.4027,-1.3995,-1.3986,-1.3973,-1.3948,-1.3948,-1.3942,-1.394,-1.3933,-1.3926,-1.3924,-1.3952,-1.3952,-1.3952,-1.3951,0,0,-1.4274,-1.4227,-1.4222,-1.4206,-1.417,-1.4151,-1.4128,-1.4098,-1.4084,-1.4058,-1.4037,-1.4001,-1.3995,-1.3976,-1.396,-1.3945,-1.3933,-1.3941,-1.3939,-1.3939,-1.3903,-1.3907,-1.3905,-1.3925,-1.3924,-1.3924,-1.3905,0,-1.4262,-1.4221,-1.42,-1.4168,-1.4145,-1.4126,-1.4106,-1.4081,-1.4063,-1.404,-1.4019,-1.3993,-1.3988,-1.3976,-1.3961,-1.3938,-1.3925,-1.3939,-1.3904,-1.3903,-1.3912,-1.3901,-1.3906,-1.389,-1.3903,-1.3902,-1.3902,0,-1.4242,-1.4217,-1.4183,-1.4149,-1.4139,-1.4121,-1.4091,-1.407,-1.4041,-1.4028,-1.4006,-1.3991,-1.3964,-1.3964,-1.3927,-1.3936,-1.3921,-1.3907,-1.3906,-1.3901,-1.3902,-1.3895,-1.3884,-1.3881,-1.3898,-1.3898,-1.3898,0,-1.4248,-1.4205,-1.4179,-1.4165,-1.4125,-1.4113,-1.4096,-1.4067,-1.4049,-1.4023,-1.4011,-1.3981,-1.3965,-1.3941,-1.3917,-1.392,-1.3882,-1.388,-1.3869,-1.387,-1.3861,-1.3862,-1.3847,-1.3853,-1.3853,-1.3853,-1.3853,0,-1.4236,-1.4215,-1.4181,-1.4165,-1.414,-1.4116,-1.4093,-1.4073,-1.4048,-1.4026,-1.4008,-1.3988,-1.3958,-1.3934,-1.3915,-1.3886,-1.3879,-1.3867,-1.3862,-1.3868,-1.3869,-1.3857,-1.3857,-1.3853,-1.3853,-1.3853,-1.3853,0,-1.4238,-1.4214,-1.4184,-1.4149,-1.4139,-1.4123,-1.4091,-1.4074,-1.4055,-1.4027,-1.402,-1.3988,-1.3959,-1.3933,-1.3894,-1.3881,-1.3851,-1.3845,-1.3861,-1.3858,-1.3849,-1.3849,-1.3824,-1.3818,-1.383,-1.383,-1.3829,0,-1.4232,-1.4216,-1.4178,-1.4163,-1.4146,-1.4122,-1.4104,-1.4079,-1.4061,-1.4026,-1.4012,-1.3982,-1.3956,-1.3909,-1.3882,-1.3852,-1.3845,-1.3838,-1.384,-1.3846,-1.3843,-1.3844,-1.3842,-1.3838,-1.3838,-1.3838,-1.3838,0,-1.4223,-1.4212,-1.4188,-1.4158,-1.4138,-1.4114,-1.4089,-1.4077,-1.4047,-1.4028,-1.3998,-1.3977,-1.3937,-1.3907,-1.3873,-1.3854,-1.384,-1.3837,-1.3833,-1.3838,-1.3848,-1.3841,-1.386,-1.3838,-1.3838,-1.3838,-1.3838,-1.3838,-1.422,-1.4204,-1.4175,-1.4148,-1.4127,-1.4104,-1.4085,-1.4063,-1.4038,-1.4004,-1.3991,-1.396,-1.3929,-1.3883,-1.3864,-1.3838,-1.3836,-1.383,-1.3828,-1.3827,-1.3827,-1.3853,-1.3832,-1.3832,-1.3832,-1.3832,-1.3832,0,-1.4209,-1.419,-1.4165,-1.4131,-1.4109,-1.4099,-1.4071,-1.4053,-1.4026,-1.3999,-1.3974,-1.3939,-1.3909,-1.3879,-1.3847,-1.3832,-1.3825,-1.3824,-1.3825,-1.382,-1.3832,-1.3838,-1.3831,-1.3831,-1.3831,-1.3831,-1.3831,-1.3831,-1.4201,-1.4174,-1.4159,-1.4119,-1.4099,-1.4069,-1.4054,-1.4032,-1.401,-1.3972,-1.3947,-1.3928,-1.39,-1.3865,-1.3836,-1.3828,-1.3817,-1.3818,-1.3808,-1.3819,-1.382,-1.382,-1.3826,-1.3816,-1.3816,-1.3798,-1.3798,-1.3798]},{"header":{"parameterUnit":"m.s-1","parameterCategory":1,"la1":30.2991,"la2":30.254,"lo1":-89.0895,"lo2":-89.0444,"dy":0.0017,"dx":0.0017,"nx":28,"ny":28,"refTime":"2024-04-15T09:00:00:Z","depth":0,"parameterNumber":3,"parameterNumberName":"V-component_of_WINDS"},"data":[0,0,0,0,0,0,0,0,0,0,0,0,0,0,0,0,0,0,0,0,0,0,0,0,0,0,0,0,0,0,0,0,0,0,0,0,0,0,0,0,0,0,0,0,0,0,0,0,0,0,0,0,0,0,0,0,0,0,2.0264,2.0264,0,2.0192,2.0191,2.019,2.0087,2.0085,2.0083,2.0081,2.0011,2.001,2.001,0,0,0,0,0,0,0,0,0,0,0,0,0,2.0317,2.0316,2.0264,2.0263,2.0263,2.0192,2.0191,2.019,2.0087,2.0085,2.0083,2.0081,2.0011,2.001,2.001,0,0,0,0,0,0,0,0,0,0,0,0,0,2.0274,2.0316,2.0265,2.0203,2.0196,2.0192,2.0191,2.019,2.0087,2.0085,2.0082,2.008,2.0011,2.0011,2.001,2.0062,0,0,2.0009,2.0009,0,0,0,0,0,0,0,0,2.0277,2.0273,2.0213,2.0207,2.02,2.0145,2.0183,2.0147,2.0088,2.0129,2.0081,2.0078,2.0058,2.0054,2.0046,2.0059,2.0056,2.0009,2.0009,2.0009,2.0009,0,0,0,0,0,0,0,2.028,2.0275,2.0236,2.0212,2.0204,2.0179,2.017,2.0176,2.011,2.0125,2.0117,2.011,2.0054,2.0047,2.0044,2.0055,2.0009,2.0009,2.0009,2.0009,2.0107,2.011,0,0,0,0,0,0,2.0292,2.0278,2.0238,2.0234,2.0232,2.0181,2.0171,2.0166,2.0109,2.0098,2.0113,2.0106,2.0048,2.0044,2.0041,2.0098,2.0009,2.0009,2.0008,2.0105,2.0108,2.0111,0,0,0,0,0,0,2.0293,2.0289,2.0241,2.0254,2.0246,2.0183,2.0178,2.0166,2.0158,2.0099,2.0087,2.0117,2.0046,2.0041,2.0057,2.0094,2.0008,2.0008,2.0101,2.0106,2.011,2.0214,0,0,0,0,0,0,2.0295,2.029,2.0308,2.0255,2.0245,2.0258,2.018,2.0166,2.0157,2.0148,2.01,2.009,2.0044,2.0059,2.0057,2.0092,2.0008,2.0098,2.0103,2.0108,2.0207,2.0221,2.0233,0,0,0,0,0,2.0297,2.0341,2.031,2.0306,2.0267,2.026,2.0255,2.02,2.0161,2.0179,2.0142,2.0092,2.0091,2.0061,2.0059,2.0094,2.0095,2.0102,2.0108,2.0201,2.0218,2.0233,0,0,0,0,0,0,2.0401,2.0333,2.0297,2.0325,2.0299,2.0243,2.0264,2.022,2.0205,2.0197,2.013,2.012,2.0146,2.0121,2.009,2.0142,2.0085,2.0092,2.0157,2.0173,2.0186,2.0192,2.0008,0,0,0,0,0,2.0427,2.0427,2.0367,2.0398,2.0386,2.0328,2.0323,2.0283,2.0254,2.0243,2.0206,2.0181,2.0175,2.0173,2.0164,2.0203,2.0192,2.0226,2.024,2.0251,2.0257,2.0277,2.0292,2.0132,2.0132,2.0132,0,0,2.0481,2.0444,2.0448,2.0418,2.0393,2.0395,2.032,2.0325,2.0326,2.0244,2.0257,2.023,2.0197,2.0226,2.0236,2.0206,2.0299,2.0259,2.0268,2.0268,2.0285,2.0301,2.0314,2.0136,2.0135,2.0135,0,0,2.0581,2.0552,2.0574,2.0551,2.0514,2.0475,2.0481,2.0431,2.041,2.0422,2.036,2.0362,2.0352,2.0332,2.0321,2.0414,2.0368,2.0413,2.0483,2.0503,2.0516,2.0527,2.0561,2.0574,2.0419,2.042,2.042,0,2.0653,2.0653,2.0592,2.0601,2.059,2.0515,2.0538,2.0518,2.0482,2.0476,2.0443,2.043,2.0403,2.0426,2.0449,2.0442,2.0447,2.0418,2.0518,2.0529,2.0538,2.057,2.0583,2.0425,2.0425,2.0424,2.0424,0,2.0744,2.0745,2.0767,2.0733,2.0724,2.0741,2.0683,2.0682,2.0643,2.0608,2.0622,2.0587,2.057,2.0572,2.0534,2.0591,2.0573,2.053,2.0472,2.056,2.0589,2.0601,2.0434,2.0432,2.043,2.0428,0,0,2.0907,2.0838,2.0848,2.0832,2.0786,2.0786,2.08,2.0782,2.0784,2.0761,2.0771,2.0766,2.0726,2.0713,2.0672,2.069,2.0768,2.0644,2.0643,2.067,2.0829,2.0863,2.0878,2.0736,2.0739,2.074,2.0832,0,2.0998,2.1016,2.0962,2.0994,2.0996,2.0924,2.0936,2.0911,2.0878,2.0876,2.084,2.0838,2.0785,2.0777,2.0791,2.0755,2.0799,2.0748,2.0747,2.0748,2.0758,2.0892,2.0927,2.1016,2.0843,2.0845,2.0846,0,2.1107,2.1089,2.1122,2.1075,2.1074,2.1085,2.1066,2.1063,2.1033,2.1009,2.0995,2.0947,2.0959,2.0902,2.0918,2.0885,2.0881,2.0864,2.0866,2.0865,2.0803,2.0896,2.1043,2.1057,2.0863,2.0862,2.0861,0,2.1224,2.1209,2.1226,2.1214,2.116,2.117,2.1148,2.1115,2.1109,2.1092,2.1087,2.1073,2.1065,2.1055,2.1006,2.0969,2.1028,2.0967,2.1009,2.1011,2.1026,2.1026,2.1175,2.1022,2.1022,2.1022,2.1022,0,2.1332,2.1355,2.1278,2.1289,2.1313,2.1251,2.1277,2.1248,2.122,2.1225,2.1163,2.1169,2.1102,2.1102,2.1063,2.1083,2.108,2.1062,2.1051,2.1068,2.107,2.1065,2.1058,2.1025,2.1025,2.1024,2.1023,0,2.1467,2.1416,2.1431,2.1378,2.1366,2.1386,2.1342,2.135,2.1314,2.1322,2.132,2.1264,2.1261,2.121,2.1196,2.117,2.1205,2.1183,2.1216,2.1209,2.1254,2.1251,2.1407,2.1424,2.126,2.1261,2.1263,0,2.154,2.1556,2.1505,2.1504,2.1485,2.1483,2.1476,2.1416,2.1412,2.1379,2.1392,2.1383,2.1373,2.1371,2.133,2.1319,2.1297,2.1352,2.1295,2.1311,2.1299,2.1299,2.1301,2.1365,2.1367,2.1368,2.137,0,2.1676,2.165,2.1641,2.1624,2.1617,2.1602,2.1582,2.1585,2.1519,2.1517,2.1512,2.1504,2.149,2.1482,2.1464,2.1443,2.1397,2.1388,2.1397,2.1415,2.1434,2.1425,2.125,2.1385,2.1383,2.1382,2.1381,2.1381,2.1782,2.1793,2.176,2.1753,2.1731,2.1715,2.1721,2.1685,2.168,2.1662,2.1628,2.1629,2.1599,2.157,2.1553,2.1554,2.1526,2.1539,2.1542,2.1547,2.1557,2.1433,2.155,2.155,2.1549,2.1549,2.1548,0,2.1915,2.189,2.1884,2.1858,2.1853,2.1808,2.1785,2.1784,2.1785,2.1761,2.1752,2.1748,2.174,2.1699,2.1687,2.1696,2.1675,2.1696,2.1695,2.1691,2.1582,2.1575,2.1713,2.1713,2.1713,2.1713,2.1713,2.1713,2.1984,2.2001,2.1971,2.1978,2.1952,2.1952,2.1943,2.1927,2.1908,2.1905,2.1898,2.1871,2.184,2.1826,2.1818,2.1806,2.1806,2.1834,2.1816,2.1714,2.1699,2.1683,2.1677,2.1834,2.1834,2.1925,2.1926,2.1926]}]]